Dewpoint
53 53 54 54 54 54 54 55 55 55 55 55 55 55 56 56 56 56 56 56 56 56 56 56 56 56 56 56 57 58 57 54 52 48 47 38 55 62 62 61 62 61 62 35 27 23 19 20 20 20 22 21 20 19 21 22 21 22 23 24 27 38 35 39 41 40 43 47 50 53 51 50 49 52 53 52 52 52 54 55 56 57 58 59 61 62 62 63
53 53 54 54 54 54 54 54 55 55 55 55 55 55 56 55 55 56 56 56 56 56 56 56 56 56 56 57 57 58 56 53 49 43 38 54 61 64 63 63 62 63 58 27 21 20 20 20 20 21 20 18 19 18 21 20 29 28 29 33 34 40 42 44 46 43 47 46 50 50 51 51 51 51 51 51 51 51 51 53 55 57 59 60 61 61 61 62
53 53 54 54 54 54 55 55 55 55 55 55 55 56 55 56 56 56 56 56 56 56 56 56 56 57 57 57 58 57 55 50 45 25 30 63 61 63 64 63 62 62 41 25 27 22 21 22 22 21 17 17 18 19 19 23 34 30 31 40 41 45 47 48 48 49 49 48 49 50 52 52 53 51 52 51 50 50 50 51 52 53 56 58 60 61 61 63
53 53 53 54 54 54 54 55 55 55 55 56 55 55 55 56 56 56 56 56 56 56 56 56 57 57 57 57 58 56 54 46 15 15 30 63 62 63 64 64 62 56 31 27 24 23 23 22 21 18 19 18 18 19 23 26 30 36 43 37 41 45 45 48 49 49 49 48 50 52 53 50 52 51 50 48 49 49 52 52 53 52 56 58 59 60 61 62
53 53 54 54 54 54 55 55 55 55 55 55 56 55 56 56 56 56 56 56 56 56 57 57 57 57 58 58 58 55 51 17 15 21 44 63 63 62 64 63 61 34 30 26 22 23 23 22 20 19 19 17 20 28 28 36 40 43 46 49 48 48 48 50 49 50 49 50 50 52 51 49 51 49 52 48 47 49 52 54 55 56 57 58 59 60 60 60
53 53 54 54 54 54 55 55 55 55 55 55 56 56 56 56 56 56 56 56 56 57 57 57 57 57 58 58 56 54 48 13 18 20 61 64 64 64 64 61 55 32 27 21 22 23 22 22 20 18 17 18 20 29 35 39 41 41 45 46 45 46 47 49 49 50 50 52 49 49 50 51 52 53 53 52 52 55 55 55 56 56 56 57 58 58 58 58
53 53 54 54 54 54 55 55 55 56 56 56 56 56 56 56 56 56 56 56 57 57 57 57 57 57 58 58 55 52 27 19 23 40 60 64 64 64 64 59 60 28 24 20 21 22 21 20 19 17 26 33 34 39 43 42 43 45 46 49 49 49 48 49 49 51 51 52 51 53 52 50 51 50 54 52 54 57 56 56 56 57 57 57 57 58 58 59
53 53 54 54 54 55 55 55 55 56 56 56 56 56 56 56 56 56 56 56 57 57 57 57 57 57 58 55 52 34 17 19 36 48 66 64 59 58 55 32 29 26 22 20 20 21 21 19 17 17 18 28 35 42 44 46 46 44 46 48 48 50 50 49 49 51 54 52 51 52 50 50 50 52 53 53 56 57 56 55 56 57 58 58 57 57 58 59
53 53 54 54 54 55 55 55 56 56 56 56 56 56 56 57 56 56 56 56 56 57 57 57 57 57 57 52 43 16 17 27 36 52 58 54 46 43 31 27 27 23 21 21 20 21 21 19 18 17 18 33 38 38 39 40 44 46 48 49 49 48 48 50 49 51 52 51 54 52 50 51 52 53 52 54 56 57 57 55 57 57 57 57 57 57 57 58
53 53 54 54 54 55 55 56 56 56 56 56 56 56 56 57 56 56 56 56 57 57 57 57 57 58 55 50 31 15 19 43 50 49 46 45 44 34 29 27 24 21 19 20 20 20 19 19 19 21 32 36 37 41 39 39 45 47 48 48 48 48 49 50 51 52 51 49 50 50 50 51 51 51 50 56 55 57 57 56 56 56 55 55 56 56 58 58
53 53 54 54 55 55 55 55 56 56 56 56 56 57 57 56 56 56 56 57 57 57 57 57 58 58 54 45 26 14 21 35 50 46 45 41 35 30 24 26 23 19 18 19 19 20 20 22 20 24 27 39 42 41 42 46 48 47 48 48 48 48 50 50 50 52 51 52 53 51 48 49 50 51 50 56 56 56 56 56 56 56 55 54 56 56 58 59
53 53 54 54 55 55 55 55 56 56 56 56 57 57 57 56 56 56 56 57 57 57 57 57 58 56 52 44 14 15 21 29 44 44 40 34 27 23 24 23 21 18 18 18 19 21 22 23 22 22 29 40 42 46 47 49 47 46 48 45 47 49 47 48 48 47 47 49 53 52 49 46 51 50 53 55 55 55 55 56 57 56 55 56 55 55 56 57
53 53 54 54 55 55 55 55 56 56 56 56 56 56 56 56 56 56 57 57 57 57 57 57 57 55 50 23 24 27 30 38 41 41 38 30 31 30 29 26 21 19 18 19 21 23 23 24 25 22 39 39 39 41 48 49 48 46 44 44 43 43 45 46 47 46 46 49 53 49 40 45 49 51 53 54 53 54 53 52 54 55 56 55 55 55 57 58
53 54 54 54 55 55 55 55 56 56 56 56 56 56 56 56 56 57 57 57 56 56 57 57 56 55 52 19 30 39 38 40 43 39 35 32 27 31 29 28 25 22 21 21 24 25 23 26 33 37 39 39 44 48 47 46 44 41 42 41 41 40 41 45 46 45 44 46 49 46 38 44 49 51 53 55 55 54 51 52 54 55 54 55 56 56 56 58
53 54 54 54 55 55 55 55 56 56 56 56 56 56 56 55 56 57 58 58 57 56 57 57 55 54 40 29 37 41 58 40 35 33 33 28 25 28 30 30 28 26 25 24 25 25 25 37 38 34 39 44 47 44 43 44 43 39 41 39 39 39 41 44 45 45 39 43 49 45 42 45 47 50 54 55 55 54 51 52 53 53 54 55 56 55 55 57
54 54 54 54 54 55 55 55 55 56 56 55 55 55 55 56 57 57 57 58 57 56 56 54 55 51 20 13 35 53 35 29 23 28 31 27 23 22 27 27 29 28 28 26 27 31 37 37 33 40 42 44 45 44 39 39 39 37 34 36 37 39 40 42 43 46 44 43 50 47 42 44 45 51 53 55 55 53 52 54 55 56 55 54 54 55 55 56
54 54 54 54 54 54 55 55 55 55 55 55 55 55 56 58 58 58 58 57 57 56 55 50 43 42 24 31 39 35 21 26 25 28 29 29 23 27 29 29 27 27 28 31 35 39 41 42 42 40 40 39 35 35 34 32 34 33 34 38 38 38 38 38 43 45 45 45 41 42 42 45 46 50 53 55 54 54 52 54 55 54 53 54 54 54 53 54
54 54 54 54 54 55 55 55 55 55 55 55 56 56 57 58 58 57 56 56 54 54 53 53 48 41 16 23 18 23 28 31 26 25 26 24 22 28 33 33 33 33 35 36 37 35 36 35 37 33 39 38 36 31 39 33 32 33 40 39 38 38 39 39 41 44 41 40 41 44 44 44 48 49 51 53 54 53 53 54 53 52 52 53 53 53 53 53
53 54 54 54 54 55 55 55 55 54 55 56 56 57 57 57 56 53 48 47 42 44 36 30 41 19 11 14 29 31 33 32 24 24 22 22 21 24 34 36 35 35 32 32 32 32 34 33 36 31 34 35 34 33 19 20 24 34 35 39 39 38 38 40 44 44 44 41 40 41 43 44 46 48 50 52 53 51 53 54 53 52 52 53 53 53 52 52
53 54 54 54 55 55 55 55 55 55 55 56 55 56 56 55 49 46 47 45 40 35 33 29 30 29 23 25 27 33 36 31 23 22 22 22 21 26 31 35 35 31 33 27 32 31 31 29 30 28 26 26 26 28 24 25 30 33 36 39 43 39 41 43 43 45 44 41 41 42 44 44 45 47 49 51 52 52 52 52 52 52 52 53 52 52 52 53
54 54 54 54 54 55 55 54 54 55 55 55 58 54 39 41 37 29 40 40 39 39 36 35 36 33 29 34 34 32 26 23 22 21 21 23 20 25 28 31 29 26 26 24 27 31 31 28 27 22 23 25 28 29 27 28 32 37 39 40 39 41 41 44 44 44 43 42 42 43 43 44 45 47 49 49 51 50 51 51 53 54 53 53 54 53 52 52
54 54 54 54 54 54 54 54 54 54 54 56 54 39 37 36 39 41 43 27 36 38 38 38 38 35 35 35 36 35 33 21 21 23 26 23 20 21 24 25 19 19 27 26 28 30 28 25 26 26 28 30 30 27 26 27 29 33 33 38 38 40 43 44 43 44 44 42 42 42 41 43 46 47 48 48 49 50 52 52 53 53 53 54 54 54 53 52
54 54 54 54 54 54 54 53 53 53 55 55 52 34 33 34 37 43 44 40 28 35 34 35 35 29 30 32 34 36 24 19 18 20 24 26 19 18 21 20 20 18 24 24 24 26 27 21 27 32 31 29 29 28 27 27 27 32 32 40 37 39 40 39 42 44 42 41 42 42 41 43 46 47 48 49 49 51 55 55 55 54 53 54 54 54 55 53
54 54 54 54 54 54 52 52 53 55 56 50 39 35 35 33 37 44 43 38 25 30 31 32 32 27 22 22 31 30 21 19 18 18 22 21 16 19 18 17 20 20 19 21 20 19 24 28 28 27 30 28 28 28 27 27 27 29 31 34 36 38 37 40 42 43 42 43 44 42 41 41 44 44 46 50 50 53 52 53 53 53 55 54 55 55 56 54
54 54 54 54 54 52 51 52 54 51 49 48 40 39 35 37 45 45 46 34 28 28 31 28 30 25 21 23 30 23 19 19 19 20 22 19 19 21 19 23 20 17 17 20 20 19 25 30 28 23 27 27 27 27 26 24 27 30 34 35 36 38 39 42 41 41 41 41 42 41 36 37 42 43 43 47 47 48 49 51 51 52 53 52 53 54 54 52
53 53 53 53 53 50 49 54 42 42 44 37 35 37 35 39 46 49 46 28 25 21 23 21 23 19 23 19 20 20 20 16 19 20 27 22 25 22 21 20 22 19 21 22 21 26 27 31 29 23 24 25 25 24 29 27 25 27 33 36 36 36 37 42 41 38 37 39 41 40 38 33 41 41 43 46 45 46 48 50 50 51 52 51 51 51 51 50
53 53 53 53 53 51 56 40 36 41 40 32 38 39 37 45 55 50 41 24 22 22 23 20 22 20 22 21 20 20 19 16 19 20 20 23 21 22 21 18 22 23 22 24 26 23 29 30 30 28 25 24 24 24 31 28 25 30 35 36 35 35 39 40 39 37 38 40 40 40 38 33 35 39 43 45 45 45 46 47 49 49 51 50 50 51 52 49
53 53 53 52 52 52 55 51 39 31 29 35 36 34 46 52 54 51 39 19 23 23 21 20 21 23 21 19 19 16 18 17 16 20 20 20 21 20 18 17 17 20 22 23 24 26 28 28 28 26 25 22 25 31 30 30 30 34 39 35 35 35 37 38 37 36 37 37 37 38 37 35 33 38 42 43 43 44 44 45 46 48 49 51 52 50 51 50
52 52 52 52 51 51 55 53 43 30 30 37 35 42 50 57 50 45 26 20 27 23 26 22 23 22 19 18 16 15 16 19 17 18 20 21 20 20 18 22 22 22 24 23 22 25 29 31 29 29 26 26 31 34 32 32 33 39 38 36 37 37 38 38 35 36 37 36 34 35 36 32 32 40 41 43 42 43 45 46 46 47 48 49 51 50 51 49
52 52 51 51 53 55 56 55 44 37 38 34 40 50 54 52 44 34 24 24 27 21 21 20 21 19 21 15 16 16 17 18 19 20 21 21 21 23 24 25 22 23 24 27 27 28 31 37 37 33 31 32 34 36 35 34 36 41 38 36 35 36 36 37 36 35 36 29 32 34 34 34 31 40 39 40 40 41 42 44 46 47 47 48 51 51 51 48
51 51 50 49 52 44 41 42 34 35 37 44 48 51 53 45 36 25 24 29 25 25 22 19 20 19 17 14 14 16 17 18 18 19 18 20 20 22 24 22 23 22 24 25 28 29 31 32 31 34 37 37 36 36 37 37 38 38 34 33 34 35 35 35 34 36 31 27 31 32 35 33 28 35 37 40 40 40 42 42 45 46 46 47 51 50 49 48
51 50 50 53 50 47 45 31 35 38 40 50 57 54 43 33 31 24 28 33 28 23 21 18 19 17 16 15 15 15 16 18 19 18 15 16 21 21 21 24 25 25 26 25 24 27 28 31 35 36 40 36 32 32 36 38 37 34 33 33 32 30 31 26 32 27 26 28 32 32 32 32 33 36 38 38 39 40 43 42 43 45 46 49 49 50 49 49
50 50 48 49 49 49 43 44 45 47 54 56 56 42 37 31 26 30 28 26 25 28 32 21 20 18 18 14 16 18 19 17 19 20 20 20 18 21 24 24 23 24 26 26 23 23 27 32 34 34 35 38 35 30 32 33 34 34 32 32 31 25 24 23 26 28 27 31 31 31 33 31 34 35 37 38 40 40 42 45 45 45 48 49 49 50 49 48
49 50 55 52 48 45 46 55 49 51 56 56 41 39 36 27 29 36 31 25 28 25 25 22 19 18 21 15 22 31 17 20 20 18 19 20 17 24 20 23 23 19 23 28 21 20 23 28 30 31 31 34 33 31 31 31 32 31 30 29 30 29 29 25 26 23 26 31 31 33 29 26 29 41 40 41 40 41 41 43 46 47 47 50 48 48 48 47
47 51 57 58 53 51 52 49 52 58 60 39 34 37 31 27 31 30 29 29 27 28 25 21 18 17 22 18 23 20 23 22 21 19 18 17 21 20 21 21 24 21 21 23 27 27 17 23 29 32 30 33 32 33 33 31 31 31 30 29 31 29 29 27 30 31 27 29 29 30 30 32 34 42 44 44 41 40 41 43 45 46 47 48 48 48 47 47
48 57 52 46 44 50 53 48 54 59 51 31 34 31 28 33 30 32 32 31 27 31 20 17 16 16 19 20 19 17 21 24 19 20 20 20 22 23 22 23 21 24 22 23 27 21 13 24 29 29 29 33 32 33 34 32 32 31 30 31 30 30 28 29 33 36 35 26 21 30 31 31 37 39 41 42 39 39 41 42 43 44 45 48 47 47 46 46
44 54 48 40 42 50 52 50 50 55 41 31 36 29 34 33 32 33 39 36 34 28 19 20 21 18 20 18 18 16 19 18 21 18 21 20 23 22 22 25 27 25 23 25 28 22 22 25 27 28 26 31 31 33 34 34 30 30 29 30 30 30 29 31 26 28 26 20 26 27 24 31 32 35 41 40 40 41 41 41 42 45 46 47 47 47 46 46
44 43 47 38 47 50 52 51 55 48 34 32 32 39 36 35 32 37 38 31 29 29 28 25 28 18 20 19 17 15 19 16 22 18 22 19 23 24 23 23 27 29 28 25 26 25 21 19 24 27 23 28 31 32 31 32 32 30 31 32 31 29 30 30 28 25 23 22 20 26 27 25 27 34 39 40 41 42 42 41 42 43 45 46 46 47 47 47
49 36 34 46 48 48 50 54 56 38 35 32 37 35 32 34 34 36 35 34 34 31 26 28 27 28 29 20 19 17 18 17 20 24 21 23 21 30 24 25 27 29 28 24 23 29 24 24 19 19 22 24 29 28 27 29 31 31 31 30 30 30 32 29 31 28 28 21 25 25 24 28 31 33 39 40 42 42 41 42 42 42 44 44 44 45 46 47
41 31 29 54 48 51 53 57 40 33 30 30 33 36 36 33 32 34 38 35 34 30 30 29 21 26 22 25 18 20 18 19 18 25 21 29 23 25 25 25 25 29 28 26 26 24 24 31 16 17 18 21 24 26 27 23 28 27 28 28 30 33 31 28 31 26 24 25 21 20 18 28 36 37 36 40 41 42 42 42 42 43 42 43 43 43 44 45
47 36 37 54 48 50 50 48 29 27 32 36 34 34 33 32 32 31 32 36 27 26 33 29 25 25 26 22 22 20 21 20 20 23 20 24 21 24 23 24 28 29 27 25 23 27 23 21 19 20 23 20 21 23 23 22 21 22 25 27 25 29 28 25 24 26 25 25 25 21 21 30 36 36 40 39 41 42 42 43 42 41 40 43 42 45 45 44
32 26 41 55 55 53 46 29 33 42 38 33 34 31 35 42 32 24 24 28 27 27 24 26 25 25 24 27 21 18 20 20 20 21 22 22 21 24 25 24 28 30 28 26 26 31 39 29 25 20 21 23 23 25 29 26 26 26 25 27 27 28 29 24 21 27 27 26 25 28 23 30 39 40 40 42 41 39 41 41 42 40 41 41 41 43 48 49
32 31 49 52 54 50 39 31 38 38 35 32 30 35 39 37 32 25 26 22 24 24 26 23 23 23 23 24 19 19 18 22 19 19 19 19 21 22 24 25 26 30 31 31 25 30 41 28 22 23 20 22 25 26 31 33 25 24 25 26 28 26 30 28 26 31 24 29 25 24 23 30 41 43 43 44 45 42 41 42 41 40 39 40 41 43 49 52
33 41 45 54 59 50 38 26 25 28 32 36 41 40 38 36 29 22 23 24 36 21 31 22 20 22 27 26 23 19 17 23 19 17 21 21 23 27 26 30 29 29 29 31 27 36 26 31 26 20 20 21 24 25 26 31 27 25 25 32 30 33 33 37 34 33 26 27 27 23 18 27 41 42 41 42 41 43 43 42 43 41 43 42 41 45 49 52
45 47 49 46 50 49 39 37 31 35 38 43 42 37 34 33 27 30 32 28 32 32 31 29 30 23 27 26 22 20 18 19 27 22 22 20 27 27 30 32 36 35 34 40 43 31 29 29 26 17 17 17 17 17 21 26 27 28 29 31 31 33 37 35 27 28 21 33 32 25 22 32 39 41 41 42 41 42 43 44 43 42 43 43 44 47 50 49
35 28 44 44 47 45 45 49 47 41 38 42 36 37 35 28 25 26 29 29 33 37 32 28 25 26 23 21 23 21 21 22 27 23 18 19 23 28 35 39 36 36 46 47 39 38 37 37 34 31 25 24 27 29 32 34 26 23 29 32 30 34 34 35 30 27 22 30 26 31 31 33 35 37 37 40 41 40 41 42 41 41 43 46 50 50 49 50
40 34 37 38 46 43 42 42 44 42 37 45 31 38 36 33 27 29 26 30 29 37 38 40 21 28 29 26 28 24 22 22 24 23 23 21 23 28 32 39 42 43 47 39 40 36 34 27 38 40 37 34 36 33 34 36 27 24 27 28 31 33 35 34 26 25 31 25 17 34 34 33 35 35 37 39 39 39 38 36 35 37 43 47 49 51 51 47
32 42 45 53 44 33 36 37 42 42 46 44 41 42 37 30 29 32 26 28 27 34 34 31 34 31 28 30 30 29 26 25 26 32 25 24 25 27 27 32 34 48 51 31 31 42 31 26 38 40 36 37 37 36 37 35 28 24 23 26 30 31 35 31 30 33 37 27 25 33 36 34 33 35 36 37 38 36 35 38 41 43 44 47 49 47 47 47
50 47 48 50 40 41 46 48 46 45 45 44 41 42 37 34 30 28 29 28 27 28 32 25 31 29 30 31 27 29 29 29 30 31 34 30 28 28 28 25 29 36 35 35 32 41 37 31 37 34 34 33 32 34 35 33 27 28 24 23 28 27 30 30 31 33 34 33 35 36 35 36 35 35 35 39 41 39 42 45 44 40 40 42 40 42 41 42
42 42 45 48 50 43 49 50 49 43 39 45 36 39 39 34 32 28 26 30 34 29 26 27 25 33 37 30 29 29 30 34 33 34 38 37 33 34 31 31 29 29 28 39 38 44 44 30 39 32 29 31 34 35 33 27 26 28 22 26 25 29 28 31 31 38 36 35 34 36 35 33 36 41 40 45 46 41 41 38 38 41 39 41 41 39 39 38
57 58 60 44 41 48 49 49 43 38 35 41 37 41 39 32 30 32 31 30 35 32 28 26 25 42 39 35 32 32 29 29 33 32 37 38 29 28 31 30 26 29 30 32 36 39 37 33 37 33 25 29 30 32 32 30 25 27 29 29 27 28 33 33 30 34 34 32 32 33 29 28 32 40 42 44 43 39 39 40 42 40 34 37 37 36 35 37
56 59 60 51 41 49 45 47 46 37 31 37 38 38 38 31 32 27 33 28 30 34 36 33 37 30 33 37 33 34 32 32 30 31 29 23 27 28 25 25 25 30 29 33 40 32 31 30 29 27 21 25 30 29 30 29 27 26 30 30 30 31 32 31 31 35 37 35 31 25 23 33 32 37 36 40 39 39 39 36 37 35 36 35 35 35 35 37